Time,TemperatureF,DewpointF,PressureIn,WindDirection,WindDirectionDegrees,WindSpeedMPH,WindSpeedGustMPH,Humidity,HourlyPrecipIn,Conditions,Clouds,dailyrainin,SoftwareType,DateUTC
2013-05-06 01:00:00,58.5,55.0,29.92,East,96,1.0,1.0,88,0.00,,,0.00,Wunderground v.1.15,2013-05-06 08:00:00,
2013-05-06 01:04:00,58.5,55.0,29.92,East,90,2.0,3.0,88,0.00,,,0.00,Wunderground v.1.15,2013-05-06 08:04:00,
2013-05-06 01:06:00,58.6,55.1,29.92,ENE,78,2.0,3.0,88,0.00,,,0.00,Wunderground v.1.15,2013-05-06 08:06:00,
2013-05-06 01:08:00,58.6,55.1,29.92,East,101,2.0,6.0,88,0.00,,,0.00,Wunderground v.1.15,2013-05-06 08:08:00,
2013-05-06 01:12:00,58.6,55.1,29.92,ENE,65,2.0,2.0,88,0.00,,,0.01,Wunderground v.1.15,2013-05-06 08:12:00,
2013-05-06 01:14:00,58.6,55.1,29.92,East,84,2.0,2.0,88,0.00,,,0.01,Wunderground v.1.15,2013-05-06 08:14:00,
2013-05-06 01:18:00,58.6,55.1,29.92,East,87,2.0,3.0,88,0.00,,,0.01,Wunderground v.1.15,2013-05-06 08:18:00,
2013-05-06 01:20:00,58.6,55.1,29.92,East,101,2.0,2.0,88,0.00,,,0.01,Wunderground v.1.15,2013-05-06 08:20:00,
2013-05-06 01:24:00,58.6,55.1,29.92,East,101,1.0,2.0,88,0.00,,,0.01,Wunderground v.1.15,2013-05-06 08:24:00,
2013-05-06 01:26:00,58.6,55.1,29.92,East,101,1.0,2.0,88,0.00,,,0.01,Wunderground v.1.15,2013-05-06 08:26:00,
2013-05-06 01:30:00,58.6,55.1,29.92,East,101,1.0,1.0,88,0.00,,,0.02,Wunderground v.1.15,2013-05-06 08:30:00,
2013-05-06 01:36:00,58.6,55.1,29.92,East,101,1.0,2.0,88,0.00,,,0.02,Wunderground v.1.15,2013-05-06 08:36:00,
2013-05-06 01:38:00,58.6,55.1,29.92,East,94,1.0,3.0,88,0.08,,,0.03,Wunderground v.1.15,2013-05-06 08:38:00,
2013-05-06 01:40:00,58.6,55.1,29.92,ESE,107,1.0,1.0,88,0.30,,,0.04,Wunderground v.1.15,2013-05-06 08:40:00,
2013-05-06 01:44:00,58.6,55.1,29.92,East,100,2.0,2.0,88,0.52,,,0.06,Wunderground v.1.15,2013-05-06 08:44:00,
2013-05-06 01:46:00,58.6,55.1,29.92,East,80,2.0,2.0,88,0.45,,,0.07,Wunderground v.1.15,2013-05-06 08:46:00,
2013-05-06 01:48:00,58.5,55.0,29.92,East,101,2.0,2.0,88,0.25,,,0.08,Wunderground v.1.15,2013-05-06 08:48:00,
2013-05-06 01:50:00,58.5,55.0,29.92,East,94,2.0,2.0,88,0.19,,,0.08,Wunderground v.1.15,2013-05-06 08:50:00,
2013-05-06 01:54:00,58.5,55.0,29.92,ESE,110,2.0,2.0,88,0.09,,,0.08,Wunderground v.1.15,2013-05-06 08:54:00,
2013-05-06 01:58:00,58.5,55.0,29.92,ESE,111,2.0,2.0,88,0.06,,,0.09,Wunderground v.1.15,2013-05-06 08:58:00,
2013-05-06 02:00:00,58.5,55.0,29.92,ESE,111,1.0,1.0,88,0.06,,,0.09,Wunderground v.1.15,2013-05-06 09:00:00,
2013-05-06 02:02:00,58.5,55.0,29.92,ESE,111,1.0,1.0,88,0.06,,,0.09,Wunderground v.1.15,2013-05-06 09:02:00,
2013-05-06 02:04:00,58.5,55.0,29.92,ESE,111,0.0,1.0,88,0.06,,,0.09,Wunderground v.1.15,2013-05-06 09:04:00,
2013-05-06 02:08:00,58.4,54.9,29.91,ESE,111,0.0,1.0,88,0.05,,,0.09,Wunderground v.1.15,2013-05-06 09:08:00,
2013-05-06 02:10:00,58.5,55.0,29.91,ESE,111,0.0,0.0,88,0.04,,,0.09,Wunderground v.1.15,2013-05-06 09:10:00,
2013-05-06 02:12:00,58.5,55.0,29.91,ESE,111,0.0,0.0,88,0.04,,,0.09,Wunderground v.1.15,2013-05-06 09:12:00,
2013-05-06 02:18:00,58.6,55.1,29.91,SSE,152,0.0,1.0,88,0.00,,,0.09,Wunderground v.1.15,2013-05-06 09:18:00,
2013-05-06 02:20:00,58.7,55.5,29.91,SSE,162,1.0,3.0,89,0.00,,,0.09,Wunderground v.1.15,2013-05-06 09:20:00,
2013-05-06 02:22:00,58.7,55.5,29.91,South,184,1.0,3.0,89,0.00,,,0.09,Wunderground v.1.15,2013-05-06 09:22:00,
2013-05-06 02:24:00,58.7,55.5,29.91,South,184,1.0,3.0,89,0.00,,,0.09,Wunderground v.1.15,2013-05-06 09:24:00,
2013-05-06 02:26:00,58.8,55.6,29.91,ESE,111,1.0,3.0,89,0.00,,,0.09,Wunderground v.1.15,2013-05-06 09:26:00,
2013-05-06 02:28:00,58.8,55.6,29.91,ESE,107,1.0,3.0,89,0.00,,,0.09,Wunderground v.1.15,2013-05-06 09:28:00,
2013-05-06 05:52:00,59.2,56.0,29.90,South,184,1.0,1.0,89,0.00,,,0.38,Wunderground v.1.15,2013-05-06 12:52:00,
2013-05-06 05:54:00,59.3,56.1,29.90,South,184,1.0,1.0,89,0.00,,,0.38,Wunderground v.1.15,2013-05-06 12:54:00,
2013-05-06 05:56:00,59.3,56.1,29.90,South,184,1.0,1.0,89,0.00,,,0.38,Wunderground v.1.15,2013-05-06 12:56:00,
2013-05-06 05:58:00,59.3,56.1,29.90,South,184,1.0,1.0,89,0.00,,,0.38,Wunderground v.1.15,2013-05-06 12:58:00,
2013-05-06 06:00:00,59.3,56.1,29.90,South,184,0.0,0.0,89,0.00,,,0.38,Wunderground v.1.15,2013-05-06 13:00:00,
2013-05-06 06:04:00,59.3,56.1,29.90,South,184,0.0,0.0,89,0.00,,,0.38,Wunderground v.1.15,2013-05-06 13:04:00,
2013-05-06 06:06:00,59.4,56.2,29.90,South,184,0.0,0.0,89,0.00,,,0.38,Wunderground v.1.15,2013-05-06 13:06:00,
2013-05-06 06:08:00,59.4,56.2,29.90,South,184,0.0,0.0,89,0.00,,,0.38,Wunderground v.1.15,2013-05-06 13:08:00,
2013-05-06 06:12:00,59.4,56.2,29.90,South,184,0.0,1.0,89,0.00,,,0.38,Wunderground v.1.15,2013-05-06 13:12:00,
2013-05-06 06:14:00,59.4,56.2,29.90,South,184,0.0,1.0,89,0.00,,,0.38,Wunderground v.1.15,2013-05-06 13:14:00,
2013-05-06 06:18:00,59.3,56.1,29.90,South,184,0.0,1.0,89,0.00,,,0.38,Wunderground v.1.15,2013-05-06 13:18:00,
2013-05-06 06:22:00,59.3,56.1,29.91,South,184,0.0,0.0,89,0.00,,,0.38,Wunderground v.1.15,2013-05-06 13:22:00,
2013-05-06 06:26:00,59.4,56.2,29.91,South,184,0.0,0.0,89,0.00,,,0.38,Wunderground v.1.15,2013-05-06 13:26:00,
2013-05-06 06:28:00,59.4,56.2,29.91,South,184,0.0,0.0,89,0.00,,,0.38,Wunderground v.1.15,2013-05-06 13:28:00,
2013-05-06 06:30:00,59.4,56.2,29.91,ESE,114,0.0,0.0,89,0.00,,,0.39,Wunderground v.1.15,2013-05-06 13:30:00,
2013-05-06 06:32:00,59.4,56.2,29.91,ESE,114,0.0,0.0,89,0.00,,,0.39,Wunderground v.1.15,2013-05-06 13:32:00,
2013-05-06 06:34:00,59.4,56.2,29.91,SSE,153,0.0,0.0,89,0.00,,,0.39,Wunderground v.1.15,2013-05-06 13:34:00,
2013-05-06 06:38:00,59.4,56.2,29.91,SSE,153,0.0,0.0,89,0.00,,,0.39,Wunderground v.1.15,2013-05-06 13:38:00,
2013-05-06 06:40:00,59.4,56.2,29.91,SSE,153,0.0,0.0,89,0.00,,,0.39,Wunderground v.1.15,2013-05-06 13:40:00,
2013-05-06 06:42:00,59.3,56.1,29.91,SSE,153,0.0,0.0,89,0.00,,,0.39,Wunderground v.1.15,2013-05-06 13:42:00,
2013-05-06 06:44:00,59.4,56.2,29.91,SSE,153,0.0,0.0,89,0.00,,,0.39,Wunderground v.1.15,2013-05-06 13:44:00,
2013-05-06 06:46:00,59.4,56.2,29.91,SSE,153,0.0,0.0,89,0.00,,,0.39,Wunderground v.1.15,2013-05-06 13:46:00,
2013-05-06 06:48:00,59.4,56.2,29.92,SSE,153,0.0,0.0,89,0.00,,,0.39,Wunderground v.1.15,2013-05-06 13:48:00,
2013-05-06 06:52:00,59.5,56.3,29.93,SSE,153,0.0,0.0,89,0.00,,,0.39,Wunderground v.1.15,2013-05-06 13:52:00,
2013-05-06 06:54:00,59.6,56.4,29.93,SSE,153,0.0,1.0,89,0.00,,,0.39,Wunderground v.1.15,2013-05-06 13:54:00,
2013-05-06 06:56:00,59.6,56.4,29.93,SSE,153,0.0,2.0,89,0.00,,,0.39,Wunderground v.1.15,2013-05-06 13:56:00,
2013-05-06 06:58:00,59.6,56.4,29.93,SSE,153,0.0,2.0,89,0.00,,,0.39,Wunderground v.1.15,2013-05-06 13:58:00,
2013-05-06 07:02:00,59.7,56.5,29.93,SSE,163,0.0,4.0,89,0.00,,,0.39,Wunderground v.1.15,2013-05-06 14:02:00,
2013-05-06 07:06:00,59.8,56.6,29.93,SW,234,0.0,4.0,89,0.00,,,0.39,Wunderground v.1.15,2013-05-06 14:06:00,
2013-05-06 07:08:00,59.8,56.6,29.93,SSW,192,1.0,4.0,89,0.00,,,0.39,Wunderground v.1.15,2013-05-06 14:08:00,
2013-05-06 07:10:00,59.9,56.6,29.93,SSE,161,1.0,2.0,89,0.00,,,0.39,Wunderground v.1.15,2013-05-06 14:10:00,
2013-05-06 07:14:00,60.0,56.7,29.94,South,173,1.0,2.0,89,0.00,,,0.39,Wunderground v.1.15,2013-05-06 14:14:00,
2013-05-06 07:18:00,60.1,56.8,29.94,SSW,211,2.0,2.0,89,0.00,,,0.39,Wunderground v.1.15,2013-05-06 14:18:00,
2013-05-06 07:20:00,60.1,56.8,29.94,SSE,149,2.0,6.0,89,0.00,,,0.39,Wunderground v.1.15,2013-05-06 14:20:00,
2013-05-06 07:24:00,60.2,56.9,29.94,South,182,2.0,6.0,89,0.00,,,0.39,Wunderground v.1.15,2013-05-06 14:24:00,
2013-05-06 07:26:00,60.3,57.0,29.94,SE,141,2.0,6.0,89,0.00,,,0.39,Wunderground v.1.15,2013-05-06 14:26:00,
2013-05-06 07:28:00,60.3,57.0,29.94,SSE,168,2.0,6.0,89,0.00,,,0.39,Wunderground v.1.15,2013-05-06 14:28:00,
2013-05-06 07:32:00,60.4,57.1,29.94,SSW,196,2.0,2.0,89,0.00,,,0.39,Wunderground v.1.15,2013-05-06 14:32:00,
2013-05-06 07:34:00,60.4,57.1,29.94,South,182,2.0,2.0,89,0.00,,,0.39,Wunderground v.1.15,2013-05-06 14:34:00,
2013-05-06 07:40:00,60.4,57.1,29.94,SSW,194,3.0,3.0,89,0.00,,,0.39,Wunderground v.1.15,2013-05-06 14:40:00,
2013-05-06 07:42:00,60.5,57.2,29.94,SSW,194,2.0,3.0,89,0.00,,,0.39,Wunderground v.1.15,2013-05-06 14:42:00,
2013-05-06 07:46:00,60.5,57.2,29.94,SSW,194,2.0,3.0,89,0.00,,,0.39,Wunderground v.1.15,2013-05-06 14:46:00,
2013-05-06 07:48:00,60.6,57.0,29.94,SSW,194,1.0,3.0,88,0.00,,,0.39,Wunderground v.1.15,2013-05-06 14:48:00,
2013-05-06 07:50:00,60.7,57.4,29.94,SSW,194,1.0,1.0,89,0.00,,,0.39,Wunderground v.1.15,2013-05-06 14:50:00,
2013-05-06 07:52:00,60.7,57.4,29.94,South,182,1.0,1.0,89,0.00,,,0.39,Wunderground v.1.15,2013-05-06 14:52:00,
2013-05-06 07:54:00,60.8,57.2,29.94,South,182,1.0,1.0,88,0.00,,,0.39,Wunderground v.1.15,2013-05-06 14:54:00,
2013-05-06 07:56:00,60.8,57.2,29.94,South,183,1.0,2.0,88,0.00,,,0.39,Wunderground v.1.15,2013-05-06 14:56:00,
2013-05-06 07:58:00,60.8,57.2,29.94,South,186,1.0,2.0,88,0.00,,,0.39,Wunderground v.1.15,2013-05-06 14:58:00,
2013-05-06 08:02:00,60.7,57.1,29.94,South,174,1.0,2.0,88,0.00,,,0.39,Wunderground v.1.15,2013-05-06 15:02:00,
2013-05-06 08:04:00,60.7,57.1,29.94,SSE,155,1.0,2.0,88,0.00,,,0.39,Wunderground v.1.15,2013-05-06 15:04:00,
2013-05-06 08:10:00,60.7,57.1,29.95,SSE,156,1.0,1.0,88,0.00,,,0.39,Wunderground v.1.15,2013-05-06 15:10:00,
2013-05-06 08:14:00,60.7,57.1,29.94,SSE,148,0.0,1.0,88,0.00,,,0.39,Wunderground v.1.15,2013-05-06 15:14:00,
2013-05-06 08:18:00,60.8,57.2,29.94,ESE,102,0.0,2.0,88,0.00,,,0.39,Wunderground v.1.15,2013-05-06 15:18:00,
2013-05-06 08:20:00,60.8,57.2,29.94,ESE,102,1.0,1.0,88,0.00,,,0.39,Wunderground v.1.15,2013-05-06 15:20:00,
2013-05-06 08:24:00,60.9,57.6,29.94,ESE,102,1.0,1.0,89,0.00,,,0.39,Wunderground v.1.15,2013-05-06 15:24:00,
2013-05-06 08:28:00,61.0,57.7,29.94,SSE,147,1.0,2.0,89,0.00,,,0.39,Wunderground v.1.15,2013-05-06 15:28:00,
2013-05-06 08:30:00,61.1,57.5,29.94,SSE,150,1.0,1.0,88,0.00,,,0.39,Wunderground v.1.15,2013-05-06 15:30:00,
2013-05-06 08:32:00,61.0,57.4,29.95,SSE,157,1.0,1.0,88,0.00,,,0.39,Wunderground v.1.15,2013-05-06 15:32:00,
2013-05-06 08:34:00,61.0,57.4,29.95,South,171,1.0,3.0,88,0.00,,,0.39,Wunderground v.1.15,2013-05-06 15:34:00,
2013-05-06 08:38:00,61.0,57.4,29.95,South,171,1.0,3.0,88,0.00,,,0.39,Wunderground v.1.15,2013-05-06 15:38:00,
2013-05-06 08:40:00,60.9,57.3,29.95,SE,134,1.0,4.0,88,0.00,,,0.39,Wunderground v.1.15,2013-05-06 15:40:00,
2013-05-06 08:42:00,60.9,57.3,29.95,South,172,1.0,4.0,88,0.00,,,0.39,Wunderground v.1.15,2013-05-06 15:42:00,
2013-05-06 08:46:00,60.8,57.2,29.95,SSW,194,2.0,4.0,88,0.00,,,0.39,Wunderground v.1.15,2013-05-06 15:46:00,
2013-05-06 08:48:00,60.8,57.2,29.95,SSW,195,2.0,8.0,88,0.00,,,0.39,Wunderground v.1.15,2013-05-06 15:48:00,
2013-05-06 08:50:00,60.4,56.8,29.95,South,173,3.0,3.0,88,0.00,,,0.39,Wunderground v.1.15,2013-05-06 15:50:00,
2013-05-06 08:54:00,59.9,56.3,29.95,SSE,147,3.0,5.0,88,0.00,,,0.40,Wunderground v.1.15,2013-05-06 15:54:00,
2013-05-06 08:56:00,59.6,55.7,29.95,SSE,165,2.0,5.0,87,0.15,,,0.41,Wunderground v.1.15,2013-05-06 15:56:00,
2013-05-06 08:58:00,59.3,55.7,29.95,SSE,165,2.0,5.0,88,0.15,,,0.41,Wunderground v.1.15,2013-05-06 15:58:00,
2013-05-06 09:02:00,59.2,55.6,29.96,SSE,165,1.0,1.0,88,0.15,,,0.42,Wunderground v.1.15,2013-05-06 16:02:00,
2013-05-06 09:04:00,59.1,55.5,29.96,SSE,165,0.0,1.0,88,0.13,,,0.42,Wunderground v.1.15,2013-05-06 16:04:00,
2013-05-06 09:06:00,59.0,55.4,29.96,SSE,165,0.0,1.0,88,0.12,,,0.43,Wunderground v.1.15,2013-05-06 16:06:00,
2013-05-06 09:10:00,59.0,55.4,29.96,SSE,165,0.0,0.0,88,0.09,,,0.43,Wunderground v.1.15,2013-05-06 16:10:00,
2013-05-06 09:12:00,59.0,55.4,29.96,SSE,165,0.0,0.0,88,0.07,,,0.43,Wunderground v.1.15,2013-05-06 16:12:00,
2013-05-06 09:14:00,58.9,55.4,29.95,SSE,165,0.0,0.0,88,0.06,,,0.43,Wunderground v.1.15,2013-05-06 16:14:00,
2013-05-06 09:18:00,59.0,55.4,29.96,SSE,165,0.0,0.0,88,0.04,,,0.43,Wunderground v.1.15,2013-05-06 16:18:00,
2013-05-06 09:20:00,59.3,55.7,29.96,SSE,165,0.0,0.0,88,0.04,,,0.43,Wunderground v.1.15,2013-05-06 16:20:00,
2013-05-06 09:22:00,59.5,56.3,29.96,SSE,165,0.0,0.0,89,0.00,,,0.43,Wunderground v.1.15,2013-05-06 16:22:00,
2013-05-06 09:24:00,59.9,56.6,29.96,SSE,167,0.0,1.0,89,0.00,,,0.43,Wunderground v.1.15,2013-05-06 16:24:00,
2013-05-06 09:26:00,60.3,57.0,29.96,SSE,167,0.0,1.0,89,0.00,,,0.43,Wunderground v.1.15,2013-05-06 16:26:00,
2013-05-06 09:32:00,61.2,57.9,29.96,SSE,167,0.0,1.0,89,0.00,,,0.43,Wunderground v.1.15,2013-05-06 16:32:00,
2013-05-06 09:34:00,61.4,58.1,29.96,SSE,167,0.0,1.0,89,0.00,,,0.43,Wunderground v.1.15,2013-05-06 16:34:00,
2013-05-06 09:36:00,61.4,58.1,29.96,SSW,194,1.0,2.0,89,0.00,,,0.43,Wunderground v.1.15,2013-05-06 16:36:00,
2013-05-06 09:40:00,61.5,57.9,29.96,SSE,161,1.0,1.0,88,0.00,,,0.43,Wunderground v.1.15,2013-05-06 16:40:00,
2013-05-06 09:42:00,61.6,58.3,29.96,SSE,161,1.0,1.0,89,0.00,,,0.43,Wunderground v.1.15,2013-05-06 16:42:00,
2013-05-06 09:44:00,61.7,58.4,29.96,South,184,1.0,1.0,89,0.00,,,0.43,Wunderground v.1.15,2013-05-06 16:44:00,
2013-05-06 09:46:00,61.8,58.5,29.96,SSE,158,1.0,3.0,89,0.00,,,0.43,Wunderground v.1.15,2013-05-06 16:46:00,
2013-05-06 09:48:00,62.1,58.5,29.96,SSE,160,1.0,3.0,88,0.00,,,0.43,Wunderground v.1.15,2013-05-06 16:48:00,
2013-05-06 09:50:00,62.2,58.6,29.96,SSW,200,1.0,3.0,88,0.00,,,0.43,Wunderground v.1.15,2013-05-06 16:50:00,
2013-05-06 09:54:00,62.0,58.1,29.96,SSW,196,2.0,3.0,87,0.00,,,0.43,Wunderground v.1.15,2013-05-06 16:54:00,
2013-05-06 09:56:00,62.0,58.4,29.96,SW,215,2.0,3.0,88,0.00,,,0.43,Wunderground v.1.15,2013-05-06 16:56:00,
2013-05-06 09:58:00,62.2,58.6,29.96,South,186,2.0,5.0,88,0.00,,,0.43,Wunderground v.1.15,2013-05-06 16:58:00,
2013-05-06 10:00:00,62.3,58.4,29.96,SW,231,2.0,2.0,87,0.00,,,0.43,Wunderground v.1.15,2013-05-06 17:00:00,
2013-05-06 10:02:00,62.4,58.5,29.96,SSW,196,2.0,2.0,87,0.00,,,0.43,Wunderground v.1.15,2013-05-06 17:02:00,
2013-05-06 10:04:00,62.6,58.7,29.96,SSE,161,2.0,4.0,87,0.00,,,0.43,Wunderground v.1.15,2013-05-06 17:04:00,
2013-05-06 10:08:00,62.9,59.0,29.96,SSW,201,3.0,4.0,87,0.00,,,0.43,Wunderground v.1.15,2013-05-06 17:08:00,
2013-05-06 10:10:00,63.0,58.7,29.96,South,188,3.0,3.0,86,0.00,,,0.43,Wunderground v.1.15,2013-05-06 17:10:00,
2013-05-06 10:12:00,63.1,58.8,29.96,SSW,196,3.0,3.0,86,0.00,,,0.43,Wunderground v.1.15,2013-05-06 17:12:00,
2013-05-06 10:14:00,63.3,59.0,29.96,SSE,165,2.0,3.0,86,0.00,,,0.43,Wunderground v.1.15,2013-05-06 17:14:00,
2013-05-06 10:18:00,63.7,59.1,29.97,SW,234,3.0,6.0,85,0.00,,,0.43,Wunderground v.1.15,2013-05-06 17:18:00,
2013-05-06 10:20:00,63.8,58.9,29.97,South,188,3.0,4.0,84,0.00,,,0.43,Wunderground v.1.15,2013-05-06 17:20:00,
2013-05-06 10:24:00,64.0,58.7,29.97,SW,215,4.0,4.0,83,0.00,,,0.43,Wunderground v.1.15,2013-05-06 17:24:00,
2013-05-06 10:26:00,64.0,58.7,29.97,SW,217,4.0,7.0,83,0.00,,,0.43,Wunderground v.1.15,2013-05-06 17:26:00,
2013-05-06 10:28:00,64.0,58.4,29.97,SW,224,4.0,7.0,82,0.00,,,0.43,Wunderground v.1.15,2013-05-06 17:28:00,
2013-05-06 10:32:00,64.1,58.8,29.97,SSW,198,4.0,4.0,83,0.00,,,0.43,Wunderground v.1.15,2013-05-06 17:32:00,
2013-05-06 10:34:00,64.1,58.8,29.97,West,275,4.0,4.0,83,0.00,,,0.43,Wunderground v.1.15,2013-05-06 17:34:00,
2013-05-06 10:40:00,64.0,58.4,29.97,SW,224,5.0,5.0,82,0.00,,,0.43,Wunderground v.1.15,2013-05-06 17:40:00,
2013-05-06 10:44:00,64.0,58.4,29.97,South,169,4.0,6.0,82,0.00,,,0.43,Wunderground v.1.15,2013-05-06 17:44:00,
2013-05-06 10:46:00,64.2,58.9,29.97,SSW,195,4.0,6.0,83,0.00,,,0.43,Wunderground v.1.15,2013-05-06 17:46:00,
2013-05-06 10:48:00,64.2,58.2,29.97,SSW,209,4.0,6.0,81,0.00,,,0.43,Wunderground v.1.15,2013-05-06 17:48:00,
2013-05-06 10:54:00,64.4,57.7,29.97,SW,227,3.0,3.0,79,0.00,,,0.43,Wunderground v.1.15,2013-05-06 17:54:00,
2013-05-06 10:56:00,64.4,58.1,29.97,South,175,3.0,3.0,80,0.00,,,0.43,Wunderground v.1.15,2013-05-06 17:56:00,
2013-05-06 10:58:00,64.5,58.2,29.97,SW,229,3.0,3.0,80,0.00,,,0.43,Wunderground v.1.15,2013-05-06 17:58:00,
2013-05-06 11:02:00,64.7,58.7,29.98,South,191,2.0,3.0,81,0.00,,,0.43,Wunderground v.1.15,2013-05-06 18:02:00,
2013-05-06 11:04:00,64.8,58.8,29.97,SSW,209,2.0,4.0,81,0.00,,,0.43,Wunderground v.1.15,2013-05-06 18:04:00,
2013-05-06 11:06:00,64.7,58.7,29.98,SSW,201,3.0,4.0,81,0.00,,,0.43,Wunderground v.1.15,2013-05-06 18:06:00,
2013-05-06 11:08:00,64.7,58.7,29.97,SW,234,3.0,4.0,81,0.00,,,0.43,Wunderground v.1.15,2013-05-06 18:08:00,
2013-05-06 11:10:00,64.6,58.6,29.97,SW,219,3.0,3.0,81,0.00,,,0.43,Wunderground v.1.15,2013-05-06 18:10:00,
2013-05-06 11:12:00,64.6,58.6,29.98,SW,217,3.0,3.0,81,0.00,,,0.43,Wunderground v.1.15,2013-05-06 18:12:00,
2013-05-06 11:18:00,64.7,59.1,29.98,South,187,2.0,4.0,82,0.00,,,0.43,Wunderground v.1.15,2013-05-06 18:18:00,
2013-05-06 11:20:00,64.8,59.2,29.98,SSE,167,2.0,2.0,82,0.00,,,0.43,Wunderground v.1.15,2013-05-06 18:20:00,
2013-05-06 11:24:00,64.9,59.3,29.98,SSW,192,3.0,5.0,82,0.00,,,0.43,Wunderground v.1.15,2013-05-06 18:24:00,
2013-05-06 11:26:00,64.8,58.8,29.98,SSW,195,3.0,5.0,81,0.00,,,0.43,Wunderground v.1.15,2013-05-06 18:26:00,
2013-05-06 11:28:00,64.8,59.2,29.98,SSW,196,4.0,5.0,82,0.00,,,0.43,Wunderground v.1.15,2013-05-06 18:28:00,
2013-05-06 11:30:00,64.9,59.3,29.98,SW,218,4.0,4.0,82,0.00,,,0.43,Wunderground v.1.15,2013-05-06 18:30:00,
2013-05-06 11:32:00,64.9,59.3,29.98,SSW,210,4.0,5.0,82,0.00,,,0.43,Wunderground v.1.15,2013-05-06 18:32:00,
2013-05-06 11:36:00,64.9,58.9,29.98,South,188,4.0,5.0,81,0.00,,,0.43,Wunderground v.1.15,2013-05-06 18:36:00,
2013-05-06 11:38:00,64.9,58.9,29.98,SW,217,5.0,5.0,81,0.00,,,0.43,Wunderground v.1.15,2013-05-06 18:38:00,
2013-05-06 11:40:00,65.0,59.0,29.98,South,175,5.0,7.0,81,0.00,,,0.43,Wunderground v.1.15,2013-05-06 18:40:00,
2013-05-06 11:44:00,65.4,59.4,29.98,SSE,163,4.0,7.0,81,0.00,,,0.43,Wunderground v.1.15,2013-05-06 18:44:00,
2013-05-06 11:46:00,65.4,59.4,29.98,South,179,4.0,7.0,81,0.00,,,0.43,Wunderground v.1.15,2013-05-06 18:46:00,
2013-05-06 11:50:00,65.6,59.6,29.98,SSW,198,4.0,4.0,81,0.00,,,0.43,Wunderground v.1.15,2013-05-06 18:50:00,
2013-05-06 11:52:00,65.6,59.6,29.98,SSW,195,4.0,4.0,81,0.00,,,0.43,Wunderground v.1.15,2013-05-06 18:52:00,
2013-05-06 11:54:00,65.6,59.6,29.98,South,169,4.0,4.0,81,0.00,,,0.43,Wunderground v.1.15,2013-05-06 18:54:00,
2013-05-06 11:56:00,65.7,59.4,29.98,South,182,4.0,4.0,80,0.00,,,0.43,Wunderground v.1.15,2013-05-06 18:56:00,
2013-05-06 12:00:00,65.8,59.1,29.98,SSE,155,3.0,3.0,79,0.00,,,0.43,Wunderground v.1.15,2013-05-06 19:00:00,
2013-05-06 12:06:00,66.0,58.9,29.98,SSW,196,3.0,5.0,78,0.00,,,0.43,Wunderground v.1.15,2013-05-06 19:06:00,
2013-05-06 12:08:00,66.0,58.6,29.97,SE,140,4.0,5.0,77,0.00,,,0.43,Wunderground v.1.15,2013-05-06 19:08:00,
2013-05-06 12:12:00,66.2,58.4,29.98,ESE,114,4.0,4.0,76,0.00,,,0.43,Wunderground v.1.15,2013-05-06 19:12:00,
2013-05-06 12:14:00,66.3,58.5,29.98,South,185,4.0,6.0,76,0.00,,,0.43,Wunderground v.1.15,2013-05-06 19:14:00,
2013-05-06 12:18:00,66.7,58.5,29.98,SSW,198,3.0,6.0,75,0.00,,,0.43,Wunderground v.1.15,2013-05-06 19:18:00,
2013-05-06 12:22:00,67.0,59.2,29.98,SSE,161,3.0,3.0,76,0.00,,,0.43,Wunderground v.1.15,2013-05-06 19:22:00,
2013-05-06 12:24:00,67.2,59.4,29.98,SW,235,2.0,3.0,76,0.00,,,0.43,Wunderground v.1.15,2013-05-06 19:24:00,
2013-05-06 12:28:00,67.2,59.0,29.97,SSE,165,3.0,5.0,75,0.00,,,0.43,Wunderground v.1.15,2013-05-06 19:28:00,
2013-05-06 12:30:00,66.9,58.7,29.98,SSW,212,3.0,4.0,75,0.00,,,0.43,Wunderground v.1.15,2013-05-06 19:30:00,
2013-05-06 12:34:00,66.6,58.8,29.97,SSW,202,4.0,4.0,76,0.00,,,0.43,Wunderground v.1.15,2013-05-06 19:34:00,
2013-05-06 12:36:00,66.7,59.3,29.97,SSW,202,4.0,4.0,77,0.00,,,0.43,Wunderground v.1.15,2013-05-06 19:36:00,
2013-05-06 12:38:00,66.8,59.0,29.97,SW,229,4.0,5.0,76,0.00,,,0.43,Wunderground v.1.15,2013-05-06 19:38:00,
2013-05-06 12:40:00,66.8,58.6,29.97,WSW,250,4.0,6.0,75,0.00,,,0.43,Wunderground v.1.15,2013-05-06 19:40:00,
2013-05-06 12:42:00,66.6,58.4,29.97,SSW,197,4.0,6.0,75,0.00,,,0.43,Wunderground v.1.15,2013-05-06 19:42:00,
2013-05-06 12:44:00,66.5,58.7,29.97,SSW,200,4.0,6.0,76,0.00,,,0.43,Wunderground v.1.15,2013-05-06 19:44:00,
2013-05-06 12:46:00,66.6,58.4,29.97,SW,214,4.0,6.0,75,0.00,,,0.43,Wunderground v.1.15,2013-05-06 19:46:00,
2013-05-06 12:48:00,66.7,58.5,29.97,South,182,4.0,6.0,75,0.00,,,0.43,Wunderground v.1.15,2013-05-06 19:48:00,
2013-05-06 12:50:00,66.9,58.3,29.97,SSW,198,4.0,4.0,74,0.00,,,0.43,Wunderground v.1.15,2013-05-06 19:50:00,
2013-05-06 12:52:00,67.0,58.4,29.97,SSW,207,3.0,4.0,74,0.00,,,0.43,Wunderground v.1.15,2013-05-06 19:52:00,
2013-05-06 12:54:00,67.2,59.4,29.97,SSE,158,3.0,4.0,76,0.00,,,0.43,Wunderground v.1.15,2013-05-06 19:54:00,
2013-05-06 12:58:00,67.7,58.7,29.97,SSE,162,3.0,4.0,73,0.00,,,0.43,Wunderground v.1.15,2013-05-06 19:58:00,
2013-05-06 13:00:00,68.0,59.0,29.97,SSW,202,2.0,3.0,73,0.00,,,0.43,Wunderground v.1.15,2013-05-06 20:00:00,
2013-05-06 13:02:00,68.1,58.7,29.97,SSW,209,3.0,3.0,72,0.00,,,0.43,Wunderground v.1.15,2013-05-06 20:02:00,
2013-05-06 13:06:00,68.3,58.9,29.97,South,188,3.0,3.0,72,0.00,,,0.43,Wunderground v.1.15,2013-05-06 20:06:00,
2013-05-06 13:12:00,68.4,58.2,29.97,SSW,207,4.0,4.0,70,0.00,,,0.43,Wunderground v.1.15,2013-05-06 20:12:00,
2013-05-06 13:14:00,68.4,58.2,29.97,ESE,117,4.0,5.0,70,0.00,,,0.43,Wunderground v.1.15,2013-05-06 20:14:00,
2013-05-06 13:18:00,68.6,58.8,29.97,ESE,111,4.0,5.0,71,0.00,,,0.43,Wunderground v.1.15,2013-05-06 20:18:00,
2013-05-06 13:20:00,69.0,58.8,29.97,SE,138,3.0,3.0,70,0.00,,,0.43,Wunderground v.1.15,2013-05-06 20:20:00,
2013-05-06 13:24:00,69.2,58.2,29.97,SW,225,3.0,6.0,68,0.00,,,0.43,Wunderground v.1.15,2013-05-06 20:24:00,
2013-05-06 13:26:00,69.1,58.9,29.97,SSW,202,3.0,6.0,70,0.00,,,0.43,Wunderground v.1.15,2013-05-06 20:26:00,
2013-05-06 13:28:00,69.1,58.9,29.97,SSE,168,3.0,6.0,70,0.00,,,0.43,Wunderground v.1.15,2013-05-06 20:28:00,
2013-05-06 13:30:00,69.3,59.1,29.97,SW,232,3.0,5.0,70,0.00,,,0.43,Wunderground v.1.15,2013-05-06 20:30:00,
2013-05-06 13:32:00,69.4,58.0,29.97,South,182,3.0,5.0,67,0.00,,,0.43,Wunderground v.1.15,2013-05-06 20:32:00,
2013-05-06 13:34:00,69.3,57.9,29.97,SW,236,3.0,5.0,67,0.00,,,0.43,Wunderground v.1.15,2013-05-06 20:34:00,
2013-05-06 13:36:00,69.2,59.0,29.97,South,184,3.0,5.0,70,0.00,,,0.43,Wunderground v.1.15,2013-05-06 20:36:00,
2013-05-06 13:40:00,69.5,59.3,29.97,South,184,4.0,4.0,70,0.00,,,0.43,Wunderground v.1.15,2013-05-06 20:40:00,
2013-05-06 13:44:00,69.5,58.1,29.97,SSW,211,3.0,10.0,67,0.00,,,0.43,Wunderground v.1.15,2013-05-06 20:44:00,
2013-05-06 13:46:00,69.5,58.5,29.97,SSW,192,3.0,10.0,68,0.00,,,0.43,Wunderground v.1.15,2013-05-06 20:46:00,
2013-05-06 13:48:00,69.1,58.5,29.97,WSW,243,4.0,10.0,69,0.00,,,0.43,Wunderground v.1.15,2013-05-06 20:48:00,
2013-05-06 13:50:00,68.8,58.6,29.97,SW,216,4.0,4.0,70,0.00,,,0.43,Wunderground v.1.15,2013-05-06 20:50:00,
2013-05-06 13:56:00,68.9,57.5,29.97,South,178,5.0,9.0,67,0.00,,,0.43,Wunderground v.1.15,2013-05-06 20:56:00,
2013-05-06 13:58:00,68.7,57.7,29.97,WSW,248,5.0,9.0,68,0.00,,,0.43,Wunderground v.1.15,2013-05-06 20:58:00,
2013-05-06 14:00:00,68.7,57.3,29.97,SW,217,5.0,5.0,67,0.00,,,0.43,Wunderground v.1.15,2013-05-06 21:00:00,
2013-05-06 14:04:00,68.8,57.4,29.97,SW,216,5.0,5.0,67,0.00,,,0.43,Wunderground v.1.15,2013-05-06 21:04:00,
2013-05-06 14:08:00,68.6,56.8,29.97,SSW,204,5.0,8.0,66,0.00,,,0.43,Wunderground v.1.15,2013-05-06 21:08:00,
2013-05-06 14:10:00,68.3,56.5,29.97,SW,215,5.0,5.0,66,0.00,,,0.43,Wunderground v.1.15,2013-05-06 21:10:00,
2013-05-06 14:14:00,68.1,56.7,29.97,SSW,192,5.0,6.0,67,0.00,,,0.43,Wunderground v.1.15,2013-05-06 21:14:00,
2013-05-06 14:18:00,67.9,56.5,29.97,SSW,209,4.0,6.0,67,0.00,,,0.43,Wunderground v.1.15,2013-05-06 21:18:00,
2013-05-06 14:24:00,68.0,56.6,29.97,South,186,4.0,9.0,67,0.00,,,0.43,Wunderground v.1.15,2013-05-06 21:24:00,
2013-05-06 14:26:00,68.2,57.6,29.97,SSW,192,4.0,9.0,69,0.00,,,0.43,Wunderground v.1.15,2013-05-06 21:26:00,
2013-05-06 14:30:00,68.9,57.5,29.97,WSW,240,4.0,5.0,67,0.00,,,0.43,Wunderground v.1.15,2013-05-06 21:30:00,
2013-05-06 14:32:00,68.9,57.5,29.97,WSW,248,4.0,5.0,67,0.00,,,0.43,Wunderground v.1.15,2013-05-06 21:32:00,
2013-05-06 14:36:00,68.9,57.5,29.97,SW,218,3.0,10.0,67,0.00,,,0.43,Wunderground v.1.15,2013-05-06 21:36:00,
2013-05-06 14:38:00,68.8,57.8,29.96,SSW,209,4.0,10.0,68,0.00,,,0.43,Wunderground v.1.15,2013-05-06 21:38:00,
2013-05-06 14:42:00,68.5,57.1,29.97,SW,220,5.0,6.0,67,0.00,,,0.43,Wunderground v.1.15,2013-05-06 21:42:00,
2013-05-06 14:44:00,68.5,57.9,29.97,SSW,199,5.0,6.0,69,0.00,,,0.43,Wunderground v.1.15,2013-05-06 21:44:00,
2013-05-06 14:46:00,68.8,58.2,29.97,SW,224,5.0,6.0,69,0.00,,,0.43,Wunderground v.1.15,2013-05-06 21:46:00,
2013-05-06 14:50:00,69.0,58.0,29.97,South,180,4.0,11.0,68,0.00,,,0.43,Wunderground v.1.15,2013-05-06 21:50:00,
2013-05-06 14:52:00,68.7,57.3,29.97,South,186,4.0,11.0,67,0.00,,,0.43,Wunderground v.1.15,2013-05-06 21:52:00,
2013-05-06 14:54:00,68.5,57.5,29.97,SW,234,4.0,11.0,68,0.00,,,0.43,Wunderground v.1.15,2013-05-06 21:54:00,
2013-05-06 14:58:00,68.7,57.7,29.97,South,183,5.0,11.0,68,0.00,,,0.43,Wunderground v.1.15,2013-05-06 21:58:00,
2013-05-06 15:00:00,68.8,57.4,29.97,SSW,201,5.0,5.0,67,0.00,,,0.43,Wunderground v.1.15,2013-05-06 22:00:00,
2013-05-06 15:04:00,68.3,58.1,29.97,SW,236,5.0,6.0,70,0.00,,,0.43,Wunderground v.1.15,2013-05-06 22:04:00,
2013-05-06 15:08:00,67.9,58.5,29.97,SSW,209,5.0,6.0,72,0.00,,,0.43,Wunderground v.1.15,2013-05-06 22:08:00,
2013-05-06 15:14:00,67.3,58.3,29.97,SW,233,3.0,5.0,73,0.00,,,0.43,Wunderground v.1.15,2013-05-06 22:14:00,
2013-05-06 15:16:00,67.1,58.2,29.97,SSW,206,4.0,9.0,73,0.00,,,0.43,Wunderground v.1.15,2013-05-06 22:16:00,
2013-05-06 15:20:00,66.7,58.9,29.97,SSW,202,4.0,4.0,76,0.00,,,0.43,Wunderground v.1.15,2013-05-06 22:20:00,
2013-05-06 15:22:00,66.7,58.9,29.97,SSW,196,4.0,4.0,76,0.00,,,0.43,Wunderground v.1.15,2013-05-06 22:22:00,
2013-05-06 15:24:00,66.7,58.9,29.97,South,175,4.0,4.0,76,0.00,,,0.43,Wunderground v.1.15,2013-05-06 22:24:00,
2013-05-06 15:26:00,66.7,58.1,29.97,SSW,210,3.0,4.0,74,0.00,,,0.43,Wunderground v.1.15,2013-05-06 22:26:00,
2013-05-06 15:30:00,66.6,58.1,29.97,SSW,200,3.0,5.0,74,0.00,,,0.43,Wunderground v.1.15,2013-05-06 22:30:00,
2013-05-06 15:32:00,66.6,58.4,29.97,South,177,3.0,5.0,75,0.00,,,0.43,Wunderground v.1.15,2013-05-06 22:32:00,
2013-05-06 15:34:00,66.6,58.4,29.97,SSW,211,3.0,5.0,75,0.00,,,0.43,Wunderground v.1.15,2013-05-06 22:34:00,
2013-05-06 15:36:00,66.5,58.0,29.97,SSW,213,4.0,5.0,74,0.00,,,0.43,Wunderground v.1.15,2013-05-06 22:36:00,
2013-05-06 15:38:00,66.4,57.5,29.96,SW,214,4.0,5.0,73,0.00,,,0.43,Wunderground v.1.15,2013-05-06 22:38:00,
2013-05-06 15:40:00,66.4,57.5,29.96,SE,132,4.0,5.0,73,0.00,,,0.43,Wunderground v.1.15,2013-05-06 22:40:00,
2013-05-06 15:42:00,66.4,57.9,29.96,SE,134,4.0,5.0,74,0.00,,,0.43,Wunderground v.1.15,2013-05-06 22:42:00,
2013-05-06 15:44:00,66.6,58.1,29.96,South,181,4.0,5.0,74,0.00,,,0.43,Wunderground v.1.15,2013-05-06 22:44:00,
2013-05-06 15:46:00,66.8,57.9,29.96,SW,224,4.0,5.0,73,0.00,,,0.43,Wunderground v.1.15,2013-05-06 22:46:00,
2013-05-06 15:48:00,67.1,58.5,29.96,SSE,147,4.0,6.0,74,0.00,,,0.43,Wunderground v.1.15,2013-05-06 22:48:00,
2013-05-06 15:50:00,67.5,58.2,29.96,SSW,199,3.0,4.0,72,0.00,,,0.43,Wunderground v.1.15,2013-05-06 22:50:00,
2013-05-06 15:52:00,67.7,58.3,29.96,SSW,205,3.0,4.0,72,0.00,,,0.43,Wunderground v.1.15,2013-05-06 22:52:00,
2013-05-06 15:56:00,67.9,59.3,29.96,SSW,195,3.0,4.0,74,0.00,,,0.43,Wunderground v.1.15,2013-05-06 22:56:00,
2013-05-06 16:00:00,67.1,58.5,29.96,South,169,5.0,5.0,74,0.00,,,0.43,Wunderground v.1.15,2013-05-06 23:00:00,
2013-05-06 16:02:00,66.9,58.7,29.96,South,184,5.0,8.0,75,0.00,,,0.43,Wunderground v.1.15,2013-05-06 23:02:00,
2013-05-06 16:04:00,66.4,58.2,29.96,South,178,5.0,8.0,75,0.00,,,0.43,Wunderground v.1.15,2013-05-06 23:04:00,
2013-05-06 16:06:00,66.1,57.9,29.96,SSE,165,5.0,8.0,75,0.00,,,0.43,Wunderground v.1.15,2013-05-06 23:06:00,
2013-05-06 16:10:00,65.5,57.4,29.96,SE,146,4.0,4.0,75,0.00,,,0.43,Wunderground v.1.15,2013-05-06 23:10:00,
2013-05-06 16:12:00,65.3,57.5,29.96,SW,214,4.0,4.0,76,0.00,,,0.43,Wunderground v.1.15,2013-05-06 23:12:00,
2013-05-06 16:16:00,64.8,57.1,29.96,South,184,4.0,8.0,76,0.00,,,0.43,Wunderground v.1.15,2013-05-06 23:16:00,
2013-05-06 16:20:00,64.6,55.7,29.96,SSW,195,6.0,6.0,73,0.00,,,0.43,Wunderground v.1.15,2013-05-06 23:20:00,
2013-05-06 16:22:00,64.6,56.1,29.96,South,184,5.0,6.0,74,0.00,,,0.43,Wunderground v.1.15,2013-05-06 23:22:00,
2013-05-06 16:24:00,64.7,56.2,29.96,SSW,211,5.0,9.0,74,0.00,,,0.43,Wunderground v.1.15,2013-05-06 23:24:00,
2013-05-06 16:30:00,65.0,55.8,29.96,South,178,5.0,6.0,72,0.00,,,0.43,Wunderground v.1.15,2013-05-06 23:30:00,
2013-05-06 16:32:00,65.1,55.8,29.96,WSW,243,6.0,6.0,72,0.00,,,0.43,Wunderground v.1.15,2013-05-06 23:32:00,
2013-05-06 16:36:00,65.4,55.0,29.96,SSW,199,5.0,6.0,69,0.00,,,0.43,Wunderground v.1.15,2013-05-06 23:36:00,
2013-05-06 16:40:00,65.4,55.4,29.96,South,170,5.0,10.0,70,0.00,,,0.43,Wunderground v.1.15,2013-05-06 23:40:00,
2013-05-06 16:42:00,65.3,55.3,29.96,WSW,240,5.0,10.0,70,0.00,,,0.43,Wunderground v.1.15,2013-05-06 23:42:00,
2013-05-06 16:46:00,65.2,55.2,29.96,SSW,209,5.0,10.0,70,0.00,,,0.43,Wunderground v.1.15,2013-05-06 23:46:00,
2013-05-06 16:48:00,65.1,55.1,29.96,SSW,209,5.0,10.0,70,0.00,,,0.43,Wunderground v.1.15,2013-05-06 23:48:00,
2013-05-06 16:54:00,64.9,56.0,29.96,SSW,193,5.0,8.0,73,0.00,,,0.43,Wunderground v.1.15,2013-05-06 23:54:00,
2013-05-06 16:56:00,64.8,56.3,29.96,SW,222,5.0,8.0,74,0.00,,,0.43,Wunderground v.1.15,2013-05-06 23:56:00,
2013-05-06 16:58:00,64.8,56.7,29.96,WSW,238,5.0,8.0,75,0.00,,,0.43,Wunderground v.1.15,2013-05-06 23:58:00,
2013-05-06 17:02:00,64.9,56.8,29.96,SW,232,4.0,5.0,75,0.00,,,0.43,Wunderground v.1.15,2013-05-07 00:02:00,
2013-05-06 17:04:00,64.8,56.7,29.96,SW,236,4.0,5.0,75,0.00,,,0.43,Wunderground v.1.15,2013-05-07 00:04:00,
2013-05-06 17:08:00,65.0,56.1,29.96,SSW,199,4.0,5.0,73,0.00,,,0.43,Wunderground v.1.15,2013-05-07 00:08:00,
2013-05-06 17:10:00,65.0,56.5,29.96,SW,234,4.0,12.0,74,0.00,,,0.43,Wunderground v.1.15,2013-05-07 00:10:00,
2013-05-06 17:12:00,65.0,56.5,29.96,SW,223,4.0,12.0,74,0.00,,,0.43,Wunderground v.1.15,2013-05-07 00:12:00,
2013-05-06 17:14:00,65.0,56.9,29.96,SSW,194,3.0,12.0,75,0.00,,,0.43,Wunderground v.1.15,2013-05-07 00:14:00,
2013-05-06 17:18:00,65.1,56.2,29.96,SW,228,3.0,12.0,73,0.00,,,0.43,Wunderground v.1.15,2013-05-07 00:18:00,
2013-05-06 17:20:00,65.0,55.8,29.96,SSW,210,3.0,3.0,72,0.00,,,0.43,Wunderground v.1.15,2013-05-07 00:20:00,
2013-05-06 17:22:00,65.0,56.1,29.96,SW,216,3.0,5.0,73,0.00,,,0.43,Wunderground v.1.15,2013-05-07 00:22:00,
2013-05-06 17:24:00,64.9,56.0,29.96,SSW,213,4.0,5.0,73,0.00,,,0.43,Wunderground v.1.15,2013-05-07 00:24:00,
2013-05-06 17:28:00,65.0,56.1,29.96,SSW,212,3.0,9.0,73,0.00,,,0.43,Wunderground v.1.15,2013-05-07 00:28:00,
2013-05-06 17:30:00,65.0,56.1,29.96,South,180,3.0,3.0,73,0.00,,,0.43,Wunderground v.1.15,2013-05-07 00:30:00,
2013-05-06 17:34:00,65.0,56.1,29.96,SW,224,3.0,5.0,73,0.00,,,0.43,Wunderground v.1.15,2013-05-07 00:34:00,
2013-05-06 17:36:00,65.0,55.4,29.96,SW,223,3.0,5.0,71,0.00,,,0.43,Wunderground v.1.15,2013-05-07 00:36:00,
2013-05-06 17:42:00,65.4,56.1,29.96,SE,145,4.0,4.0,72,0.00,,,0.43,Wunderground v.1.15,2013-05-07 00:42:00,
2013-05-06 17:48:00,66.2,56.9,29.96,South,176,3.0,5.0,72,0.00,,,0.43,Wunderground v.1.15,2013-05-07 00:48:00,
2013-05-06 17:50:00,66.5,57.2,29.96,WSW,242,3.0,3.0,72,0.00,,,0.43,Wunderground v.1.15,2013-05-07 00:50:00,
2013-05-06 17:52:00,66.6,57.3,29.96,SSW,193,3.0,3.0,72,0.00,,,0.43,Wunderground v.1.15,2013-05-07 00:52:00,
2013-05-06 17:54:00,66.7,57.8,29.96,South,188,3.0,3.0,73,0.00,,,0.43,Wunderground v.1.15,2013-05-07 00:54:00,
2013-05-06 17:56:00,66.7,57.8,29.96,SW,232,3.0,3.0,73,0.00,,,0.43,Wunderground v.1.15,2013-05-07 00:56:00,
2013-05-06 17:58:00,66.6,58.1,29.96,West,263,3.0,3.0,74,0.00,,,0.43,Wunderground v.1.15,2013-05-07 00:58:00,
2013-05-06 18:00:00,66.6,58.4,29.96,South,185,3.0,3.0,75,0.00,,,0.43,Wunderground v.1.15,2013-05-07 01:00:00,
2013-05-06 18:04:00,66.5,58.3,29.96,South,189,3.0,9.0,75,0.00,,,0.43,Wunderground v.1.15,2013-05-07 01:04:00,
2013-05-06 18:06:00,66.3,58.1,29.96,SSE,163,3.0,9.0,75,0.00,,,0.43,Wunderground v.1.15,2013-05-07 01:06:00,
2013-05-06 18:08:00,66.3,58.5,29.96,SSE,159,3.0,9.0,76,0.00,,,0.43,Wunderground v.1.15,2013-05-07 01:08:00,
2013-05-06 18:10:00,66.2,58.4,29.96,South,169,3.0,3.0,76,0.00,,,0.43,Wunderground v.1.15,2013-05-07 01:10:00,
2013-05-06 18:12:00,66.3,58.5,29.96,SSW,193,3.0,3.0,76,0.00,,,0.43,Wunderground v.1.15,2013-05-07 01:12:00,
2013-05-06 18:14:00,66.3,58.5,29.96,South,182,3.0,8.0,76,0.00,,,0.43,Wunderground v.1.15,2013-05-07 01:14:00,
2013-05-06 18:18:00,65.9,57.7,29.96,South,169,3.0,8.0,75,0.00,,,0.43,Wunderground v.1.15,2013-05-07 01:18:00,
2013-05-06 18:20:00,65.9,57.7,29.96,South,183,3.0,3.0,75,0.00,,,0.43,Wunderground v.1.15,2013-05-07 01:20:00,
2013-05-06 18:24:00,65.8,58.0,29.96,South,180,3.0,7.0,76,0.00,,,0.43,Wunderground v.1.15,2013-05-07 01:24:00,
2013-05-06 18:26:00,65.5,57.4,29.96,South,171,3.0,7.0,75,0.00,,,0.43,Wunderground v.1.15,2013-05-07 01:26:00,
2013-05-06 18:28:00,65.4,57.3,29.96,SSW,202,4.0,7.0,75,0.00,,,0.43,Wunderground v.1.15,2013-05-07 01:28:00,
2013-05-06 18:30:00,65.2,57.1,29.96,SSW,196,4.0,6.0,75,0.00,,,0.43,Wunderground v.1.15,2013-05-07 01:30:00,
2013-05-06 18:34:00,65.0,56.9,29.96,South,188,4.0,6.0,75,0.00,,,0.43,Wunderground v.1.15,2013-05-07 01:34:00,
2013-05-06 18:36:00,64.9,57.2,29.96,SSW,201,4.0,6.0,76,0.00,,,0.43,Wunderground v.1.15,2013-05-07 01:36:00,
2013-05-06 18:38:00,64.8,56.7,29.96,WSW,249,4.0,6.0,75,0.00,,,0.43,Wunderground v.1.15,2013-05-07 01:38:00,
2013-05-06 18:40:00,64.6,56.1,29.96,WNW,302,4.0,4.0,74,0.00,,,0.43,Wunderground v.1.15,2013-05-07 01:40:00,
2013-05-06 18:42:00,64.6,56.1,29.96,SW,215,4.0,4.0,74,0.00,,,0.43,Wunderground v.1.15,2013-05-07 01:42:00,
2013-05-06 18:44:00,64.5,56.4,29.96,South,169,4.0,4.0,75,0.00,,,0.43,Wunderground v.1.15,2013-05-07 01:44:00,
2013-05-06 18:48:00,64.5,56.4,29.96,SW,221,4.0,4.0,75,0.00,,,0.43,Wunderground v.1.15,2013-05-07 01:48:00,
2013-05-06 18:50:00,64.5,56.4,29.96,SSW,198,3.0,4.0,75,0.00,,,0.43,Wunderground v.1.15,2013-05-07 01:50:00,
2013-05-06 18:52:00,64.6,56.5,29.96,SW,215,2.0,5.0,75,0.00,,,0.43,Wunderground v.1.15,2013-05-07 01:52:00,
2013-05-06 18:56:00,64.6,56.9,29.96,South,181,2.0,5.0,76,0.00,,,0.43,Wunderground v.1.15,2013-05-07 01:56:00,
2013-05-06 18:58:00,64.7,57.3,29.96,South,176,2.0,5.0,77,0.00,,,0.43,Wunderground v.1.15,2013-05-07 01:58:00,
2013-05-06 19:00:00,64.7,57.3,29.96,SW,224,2.0,2.0,77,0.00,,,0.43,Wunderground v.1.15,2013-05-07 02:00:00,
2013-05-06 19:02:00,64.6,57.2,29.96,SE,142,2.0,6.0,77,0.00,,,0.43,Wunderground v.1.15,2013-05-07 02:02:00,
2013-05-06 19:04:00,64.5,57.1,29.96,South,187,2.0,6.0,77,0.00,,,0.43,Wunderground v.1.15,2013-05-07 02:04:00,
2013-05-06 19:06:00,64.4,57.0,29.96,South,182,2.0,6.0,77,0.00,,,0.43,Wunderground v.1.15,2013-05-07 02:06:00,
2013-05-06 19:08:00,64.3,56.9,29.96,SSW,206,3.0,9.0,77,0.00,,,0.43,Wunderground v.1.15,2013-05-07 02:08:00,
2013-05-06 19:10:00,64.2,56.8,29.96,South,180,3.0,3.0,77,0.00,,,0.43,Wunderground v.1.15,2013-05-07 02:10:00,
2013-05-06 19:12:00,64.2,57.2,29.96,SSE,155,3.0,4.0,78,0.00,,,0.43,Wunderground v.1.15,2013-05-07 02:12:00,
2013-05-06 19:14:00,64.1,56.7,29.96,SSW,200,3.0,4.0,77,0.00,,,0.43,Wunderground v.1.15,2013-05-07 02:14:00,
2013-05-06 19:18:00,63.9,56.5,29.96,SSW,197,2.0,4.0,77,0.00,,,0.43,Wunderground v.1.15,2013-05-07 02:18:00,
2013-05-06 19:20:00,63.9,56.9,29.96,South,180,2.0,2.0,78,0.00,,,0.43,Wunderground v.1.15,2013-05-07 02:20:00,
2013-05-06 19:22:00,63.8,56.8,29.96,SSW,192,2.0,2.0,78,0.00,,,0.43,Wunderground v.1.15,2013-05-07 02:22:00,
2013-05-06 19:24:00,63.9,57.3,29.96,SE,140,2.0,3.0,79,0.00,,,0.43,Wunderground v.1.15,2013-05-07 02:24:00,
2013-05-06 19:26:00,63.9,57.6,29.97,South,188,2.0,5.0,80,0.00,,,0.43,Wunderground v.1.15,2013-05-07 02:26:00,
2013-05-06 19:28:00,63.8,57.5,29.96,SSE,165,3.0,5.0,80,0.00,,,0.43,Wunderground v.1.15,2013-05-07 02:28:00,
2013-05-06 19:34:00,63.6,57.3,29.97,South,176,3.0,5.0,80,0.00,,,0.43,Wunderground v.1.15,2013-05-07 02:34:00,
2013-05-06 19:36:00,63.5,57.2,29.97,SSE,165,3.0,5.0,80,0.00,,,0.43,Wunderground v.1.15,2013-05-07 02:36:00,
2013-05-06 19:38:00,63.4,56.8,29.97,South,184,3.0,5.0,79,0.00,,,0.43,Wunderground v.1.15,2013-05-07 02:38:00,
2013-05-06 19:42:00,63.2,56.6,29.97,SSW,192,3.0,5.0,79,0.00,,,0.43,Wunderground v.1.15,2013-05-07 02:42:00,
2013-05-06 19:44:00,63.2,56.9,29.97,SSW,202,3.0,5.0,80,0.00,,,0.43,Wunderground v.1.15,2013-05-07 02:44:00,
2013-05-06 19:48:00,63.2,56.9,29.97,SE,143,2.0,5.0,80,0.00,,,0.43,Wunderground v.1.15,2013-05-07 02:48:00,
2013-05-06 19:50:00,63.2,56.9,29.97,SSW,204,2.0,3.0,80,0.00,,,0.43,Wunderground v.1.15,2013-05-07 02:50:00,
2013-05-06 19:52:00,63.3,57.0,29.97,SE,125,2.0,4.0,80,0.00,,,0.43,Wunderground v.1.15,2013-05-07 02:52:00,
2013-05-06 19:54:00,63.2,56.9,29.97,South,177,2.0,4.0,80,0.00,,,0.43,Wunderground v.1.15,2013-05-07 02:54:00,
2013-05-06 19:56:00,63.2,56.9,29.97,South,180,2.0,4.0,80,0.00,,,0.43,Wunderground v.1.15,2013-05-07 02:56:00,
2013-05-06 20:00:00,63.3,57.4,29.97,South,182,2.0,2.0,81,0.00,,,0.43,Wunderground v.1.15,2013-05-07 03:00:00,
2013-05-06 20:02:00,63.3,57.7,29.97,South,177,2.0,2.0,82,0.00,,,0.43,Wunderground v.1.15,2013-05-07 03:02:00,
2013-05-06 20:04:00,63.3,57.7,29.97,South,176,2.0,2.0,82,0.00,,,0.43,Wunderground v.1.15,2013-05-07 03:04:00,
2013-05-06 20:06:00,63.3,57.7,29.97,South,169,2.0,4.0,82,0.00,,,0.43,Wunderground v.1.15,2013-05-07 03:06:00,
2013-05-06 20:08:00,63.2,57.6,29.97,South,173,2.0,4.0,82,0.00,,,0.43,Wunderground v.1.15,2013-05-07 03:08:00,
2013-05-06 20:14:00,62.9,57.3,29.97,SSW,203,2.0,3.0,82,0.00,,,0.43,Wunderground v.1.15,2013-05-07 03:14:00,
2013-05-06 20:18:00,62.8,57.2,29.97,SSE,161,2.0,3.0,82,0.00,,,0.43,Wunderground v.1.15,2013-05-07 03:18:00,
2013-05-06 20:20:00,62.8,57.6,29.98,SSE,161,1.0,1.0,83,0.00,,,0.43,Wunderground v.1.15,2013-05-07 03:20:00,
2013-05-06 20:24:00,62.8,57.6,29.98,SE,124,1.0,1.0,83,0.00,,,0.43,Wunderground v.1.15,2013-05-07 03:24:00,
2013-05-06 20:26:00,62.7,57.5,29.98,South,170,1.0,1.0,83,0.00,,,0.43,Wunderground v.1.15,2013-05-07 03:26:00,
2013-05-06 20:28:00,62.7,57.5,29.98,SSE,165,1.0,1.0,83,0.00,,,0.43,Wunderground v.1.15,2013-05-07 03:28:00,
2013-05-06 20:32:00,62.6,57.4,29.98,SSW,211,1.0,1.0,83,0.00,,,0.43,Wunderground v.1.15,2013-05-07 03:32:00,
2013-05-06 20:34:00,62.5,57.3,29.98,South,184,1.0,1.0,83,0.00,,,0.43,Wunderground v.1.15,2013-05-07 03:34:00,
2013-05-06 20:36:00,62.5,57.3,29.98,South,183,1.0,1.0,83,0.00,,,0.43,Wunderground v.1.15,2013-05-07 03:36:00,
2013-05-06 20:38:00,62.5,57.3,29.98,South,183,1.0,1.0,83,0.00,,,0.43,Wunderground v.1.15,2013-05-07 03:38:00,
2013-05-06 20:44:00,62.4,57.2,29.98,South,169,1.0,4.0,83,0.00,,,0.43,Wunderground v.1.15,2013-05-07 03:44:00,
2013-05-06 20:48:00,62.3,57.1,29.98,South,169,1.0,4.0,83,0.00,,,0.43,Wunderground v.1.15,2013-05-07 03:48:00,
2013-05-06 20:50:00,62.3,57.1,29.99,SSE,159,1.0,1.0,83,0.00,,,0.43,Wunderground v.1.15,2013-05-07 03:50:00,
2013-05-06 20:56:00,62.2,57.0,29.99,SW,217,1.0,1.0,83,0.00,,,0.43,Wunderground v.1.15,2013-05-07 03:56:00,
2013-05-06 20:58:00,62.2,57.0,29.99,SW,217,1.0,1.0,83,0.00,,,0.43,Wunderground v.1.15,2013-05-07 03:58:00,
2013-05-06 21:02:00,62.2,57.0,29.99,SSW,194,0.0,0.0,83,0.00,,,0.43,Wunderground v.1.15,2013-05-07 04:02:00,
2013-05-06 21:04:00,62.2,57.0,29.98,SSE,165,0.0,2.0,83,0.00,,,0.43,Wunderground v.1.15,2013-05-07 04:04:00,
2013-05-06 21:06:00,62.1,56.9,29.99,ESE,119,1.0,2.0,83,0.00,,,0.43,Wunderground v.1.15,2013-05-07 04:06:00,
2013-05-06 21:08:00,62.1,56.9,29.99,SSW,204,1.0,2.0,83,0.00,,,0.43,Wunderground v.1.15,2013-05-07 04:08:00,
2013-05-06 21:12:00,62.0,56.8,29.99,SSE,168,1.0,1.0,83,0.00,,,0.43,Wunderground v.1.15,2013-05-07 04:12:00,
2013-05-06 21:14:00,61.9,56.7,29.99,South,174,1.0,2.0,83,0.00,,,0.43,Wunderground v.1.15,2013-05-07 04:14:00,
2013-05-06 21:16:00,61.9,56.7,29.99,South,190,1.0,2.0,83,0.00,,,0.43,Wunderground v.1.15,2013-05-07 04:16:00,
2013-05-06 21:22:00,61.9,56.7,29.99,SE,145,1.0,1.0,83,0.00,,,0.43,Wunderground v.1.15,2013-05-07 04:22:00,
2013-05-06 21:24:00,61.8,56.6,29.99,SSE,150,1.0,1.0,83,0.00,,,0.43,Wunderground v.1.15,2013-05-07 04:24:00,
2013-05-06 21:26:00,61.8,56.6,29.99,SSE,150,1.0,1.0,83,0.00,,,0.43,Wunderground v.1.15,2013-05-07 04:26:00,
2013-05-06 21:32:00,61.8,56.6,29.99,South,183,1.0,1.0,83,0.00,,,0.43,Wunderground v.1.15,2013-05-07 04:32:00,
2013-05-06 21:34:00,61.8,56.6,29.99,South,183,1.0,1.0,83,0.00,,,0.43,Wunderground v.1.15,2013-05-07 04:34:00,
2013-05-06 21:36:00,61.7,56.5,29.99,South,180,1.0,1.0,83,0.00,,,0.43,Wunderground v.1.15,2013-05-07 04:36:00,
2013-05-06 21:40:00,61.7,56.8,29.99,South,180,0.0,1.0,84,0.00,,,0.43,Wunderground v.1.15,2013-05-07 04:40:00,
2013-05-06 21:42:00,61.7,56.8,30.00,South,180,0.0,0.0,84,0.00,,,0.43,Wunderground v.1.15,2013-05-07 04:42:00,
2013-05-06 21:44:00,61.6,56.7,30.00,South,180,0.0,0.0,84,0.00,,,0.43,Wunderground v.1.15,2013-05-07 04:44:00,
2013-05-06 21:46:00,61.6,56.7,30.00,South,180,0.0,0.0,84,0.00,,,0.43,Wunderground v.1.15,2013-05-07 04:46:00,
2013-05-06 21:50:00,61.5,56.6,30.00,South,180,0.0,1.0,84,0.00,,,0.43,Wunderground v.1.15,2013-05-07 04:50:00,
2013-05-06 21:52:00,61.5,56.6,30.00,South,180,0.0,0.0,84,0.00,,,0.43,Wunderground v.1.15,2013-05-07 04:52:00,
2013-05-06 21:56:00,61.5,56.6,30.00,South,180,0.0,1.0,84,0.00,,,0.43,Wunderground v.1.15,2013-05-07 04:56:00,
2013-05-06 21:58:00,61.5,56.6,30.00,South,180,0.0,1.0,84,0.00,,,0.43,Wunderground v.1.15,2013-05-07 04:58:00,
2013-05-06 22:00:00,61.5,56.6,30.00,South,169,0.0,3.0,84,0.00,,,0.43,Wunderground v.1.15,2013-05-07 05:00:00,
2013-05-06 22:02:00,61.4,56.5,30.00,SSE,159,0.0,3.0,84,0.00,,,0.43,Wunderground v.1.15,2013-05-07 05:02:00,
2013-05-06 22:04:00,61.4,56.5,30.00,SSE,159,0.0,3.0,84,0.00,,,0.43,Wunderground v.1.15,2013-05-07 05:04:00,
2013-05-06 22:06:00,61.4,56.5,30.00,SSE,159,0.0,3.0,84,0.00,,,0.43,Wunderground v.1.15,2013-05-07 05:06:00,
2013-05-06 22:08:00,61.4,56.2,30.00,SSW,192,0.0,5.0,83,0.00,,,0.43,Wunderground v.1.15,2013-05-07 05:08:00,
2013-05-06 22:10:00,61.3,56.1,30.00,South,188,1.0,1.0,83,0.00,,,0.43,Wunderground v.1.15,2013-05-07 05:10:00,
2013-05-06 22:12:00,61.3,56.1,30.00,South,188,0.0,1.0,83,0.00,,,0.43,Wunderground v.1.15,2013-05-07 05:12:00,
2013-05-06 22:14:00,61.3,56.1,30.00,South,188,0.0,1.0,83,0.00,,,0.43,Wunderground v.1.15,2013-05-07 05:14:00,
2013-05-06 22:18:00,61.4,56.5,30.00,South,169,0.0,1.0,84,0.00,,,0.43,Wunderground v.1.15,2013-05-07 05:18:00,
2013-05-06 22:20:00,61.4,56.5,30.00,South,169,0.0,0.0,84,0.00,,,0.43,Wunderground v.1.15,2013-05-07 05:20:00,
2013-05-06 22:22:00,61.4,56.5,30.00,South,169,0.0,0.0,84,0.00,,,0.43,Wunderground v.1.15,2013-05-07 05:22:00,
2013-05-06 22:24:00,61.4,56.5,30.00,South,169,0.0,0.0,84,0.00,,,0.43,Wunderground v.1.15,2013-05-07 05:24:00,
2013-05-06 22:30:00,61.4,56.5,30.00,South,169,0.0,0.0,84,0.00,,,0.43,Wunderground v.1.15,2013-05-07 05:30:00,
2013-05-06 22:32:00,61.4,56.5,30.00,South,169,0.0,0.0,84,0.00,,,0.43,Wunderground v.1.15,2013-05-07 05:32:00,
2013-05-06 22:34:00,61.4,56.5,30.00,South,169,0.0,0.0,84,0.00,,,0.43,Wunderground v.1.15,2013-05-07 05:34:00,
2013-05-06 22:40:00,61.3,56.4,30.00,South,169,0.0,0.0,84,0.00,,,0.43,Wunderground v.1.15,2013-05-07 05:40:00,
2013-05-06 22:42:00,61.3,56.4,30.00,South,169,0.0,1.0,84,0.00,,,0.43,Wunderground v.1.15,2013-05-07 05:42:00,
2013-05-06 22:44:00,61.3,56.4,30.00,South,169,0.0,1.0,84,0.00,,,0.43,Wunderground v.1.15,2013-05-07 05:44:00,
2013-05-06 22:48:00,61.3,56.4,30.00,South,169,0.0,1.0,84,0.00,,,0.43,Wunderground v.1.15,2013-05-07 05:48:00,
2013-05-06 22:50:00,61.3,56.4,30.00,South,169,0.0,0.0,84,0.00,,,0.43,Wunderground v.1.15,2013-05-07 05:50:00,
2013-05-06 22:52:00,61.3,56.4,30.00,South,169,0.0,0.0,84,0.00,,,0.43,Wunderground v.1.15,2013-05-07 05:52:00,
2013-05-06 22:54:00,61.3,56.4,30.00,South,169,0.0,1.0,84,0.00,,,0.43,Wunderground v.1.15,2013-05-07 05:54:00,
2013-05-06 22:58:00,61.3,56.4,30.00,SSE,168,0.0,2.0,84,0.00,,,0.43,Wunderground v.1.15,2013-05-07 05:58:00,
2013-05-06 23:00:00,61.3,56.4,30.00,SE,130,1.0,1.0,84,0.00,,,0.43,Wunderground v.1.15,2013-05-07 06:00:00,
2013-05-06 23:02:00,61.3,56.4,30.00,South,173,1.0,1.0,84,0.00,,,0.43,Wunderground v.1.15,2013-05-07 06:02:00,
2013-05-06 23:06:00,61.4,56.5,30.00,South,173,1.0,1.0,84,0.00,,,0.43,Wunderground v.1.15,2013-05-07 06:06:00,
2013-05-06 23:08:00,61.4,56.5,30.00,SE,139,1.0,1.0,84,0.00,,,0.43,Wunderground v.1.15,2013-05-07 06:08:00,
2013-05-06 23:10:00,61.4,56.8,30.00,SE,145,1.0,2.0,85,0.00,,,0.43,Wunderground v.1.15,2013-05-07 06:10:00,
2013-05-06 23:16:00,61.5,56.9,30.00,SE,136,2.0,2.0,85,0.00,,,0.43,Wunderground v.1.15,2013-05-07 06:16:00,
2013-05-06 23:18:00,61.5,56.9,30.00,SE,136,2.0,2.0,85,0.00,,,0.43,Wunderground v.1.15,2013-05-07 06:18:00,
2013-05-06 23:20:00,61.6,57.0,30.00,SSE,161,1.0,1.0,85,0.00,,,0.43,Wunderground v.1.15,2013-05-07 06:20:00,
2013-05-06 23:22:00,61.6,57.0,30.00,SE,142,1.0,1.0,85,0.00,,,0.43,Wunderground v.1.15,2013-05-07 06:22:00,
2013-05-06 23:24:00,61.6,57.0,30.00,South,186,1.0,5.0,85,0.00,,,0.43,Wunderground v.1.15,2013-05-07 06:24:00,
2013-05-06 23:26:00,61.6,57.0,30.00,South,185,1.0,5.0,85,0.00,,,0.43,Wunderground v.1.15,2013-05-07 06:26:00,
2013-05-06 23:28:00,61.6,57.0,30.00,South,185,1.0,5.0,85,0.00,,,0.43,Wunderground v.1.15,2013-05-07 06:28:00,
2013-05-06 23:32:00,61.6,57.0,30.00,South,184,1.0,1.0,85,0.00,,,0.43,Wunderground v.1.15,2013-05-07 06:32:00,
2013-05-06 23:34:00,61.5,56.9,30.00,SE,141,0.0,4.0,85,0.00,,,0.43,Wunderground v.1.15,2013-05-07 06:34:00,
2013-05-06 23:36:00,61.5,56.6,30.00,SSE,160,0.0,4.0,84,0.00,,,0.43,Wunderground v.1.15,2013-05-07 06:36:00,
2013-05-06 23:40:00,61.4,56.5,30.00,South,169,0.0,0.0,84,0.00,,,0.43,Wunderground v.1.15,2013-05-07 06:40:00,
2013-05-06 23:42:00,61.4,56.5,30.00,South,169,0.0,0.0,84,0.00,,,0.43,Wunderground v.1.15,2013-05-07 06:42:00,
2013-05-06 23:46:00,61.3,56.4,30.00,South,169,0.0,1.0,84,0.00,,,0.43,Wunderground v.1.15,2013-05-07 06:46:00,
2013-05-06 23:48:00,61.3,56.4,30.00,South,169,0.0,1.0,84,0.00,,,0.43,Wunderground v.1.15,2013-05-07 06:48:00,
2013-05-06 23:50:00,61.3,56.4,30.00,South,169,0.0,0.0,84,0.00,,,0.43,Wunderground v.1.15,2013-05-07 06:50:00,
2013-05-06 23:54:00,61.2,56.3,30.01,South,169,0.0,0.0,84,0.00,,,0.43,Wunderground v.1.15,2013-05-07 06:54:00,
2013-05-06 23:56:00,61.2,56.3,30.00,South,169,0.0,0.0,84,0.00,,,0.43,Wunderground v.1.15,2013-05-07 06:56:00,
2013-05-06 23:58:00,61.1,56.6,30.00,South,169,0.0,0.0,85,0.00,,,0.43,Wunderground v.1.15,2013-05-07 06:58:00,